GRUS-1E

导读

GRUS-1E是日本研制的微卫星,于2021年3月22日发射升空。作为GRUS系列卫星的一员,它隶属于日本新型遥感卫星星座项目,主要用于对地观测,可获取高分辨率地面影像,服务于环境监测、灾害应急响应、地理测绘等领域,依托小卫星组网模式提升观测时效与覆盖范围,助力日本商业航天遥感应用发展。

基本信息
目录编号:
47935
目录名称:
GRUS-1E
国际标识:
2021-022D
轨道中心:
EARTH
卫星名称:
GRUS-1E
卫星全名:
--
卫星状态:
在轨 (已飞行2000 天)
发射日期:
2021-03-22 UTC
国别 :
日本 (JP)
星等 :
--
该卫星已列入 空间交会检测服务 Space Conjunction Data Service (SCDS) ,当前飞行风险评估等级: 无高风险
轨道信息
数据来源 国际轨道数据
星历时间: 2026-09-12T15:42:32+0800
9小时前
查看轨道信息
半长轴: 6947.975km
偏心率: 0.0011432
轨道倾角: 97.527°
近地点辐角 30.668°
升交点赤经 136.825°
平近点角 329.521°
近地点: 561.895km
远地点: 577.781km
周期: 96.061分钟
每日圈数: 14.990476
详细信息
使用方式:
暂无
2D轨道图
3D轨道图
轨道高度分析图
轨道倾角分析图
轨道综合分析图
查看轨道综合分析图
交会数据列表
事件ID 空间交会对象 最接近时刻(TCA) 交会距离 交会风险概率(CRP) 交会风险指数(CRI) 操作
CDM_260915-060104-793506-666621
GRUS-1E (47935)
2026-09-15T
06:01:55+0000
1.047 km
极远距离
2.330981E-5 中风险 0.62
CDM_260915-050204-793505-910821
GRUS-1E (47935)
BRO-12 (59108)
2026-09-15T
05:02:35+0000
2.117 km
极远距离
2.214383E-6 低风险 0.42
与全量物体交会距离演化趋势
与全量物体交会风险概率演化趋势